• In Romania
  • List of Countries
  • For 7 days
  • Water Temperature
  • Satellite Maps
  • Weather Map
  • Weather Widgets
  • user-avatar
    Login

    Hourly Weather Kotonu

    Today, 20 August, Monday

    Time Temperature Precipitation Wind Pressure Humidity
    00:00 +26°C° 0 mm 4 mps 761 mmHg 88%
    01:00 +26°C° 0 mm 5 mps 760 mmHg 89%
    02:00 +26°C° 0 mm 5 mps 760 mmHg 89%
    03:00 +26°C° 0 mm 5 mps 760 mmHg 90%
    04:00 +26°C° 0.1 mm 5 mps 760 mmHg 90%
    05:00 +26°C° 0.1 mm 5 mps 760 mmHg 90%
    06:00 +26°C° 0.1 mm 5 mps 760 mmHg 91%
    07:00 +27°C° 0 mm 5 mps 761 mmHg 84%
    08:00 +28°C° 0 mm 5 mps 761 mmHg 78%
    09:00 +30°C° 0 mm 5 mps 761 mmHg 72%
    10:00 +32°C° 0.2 mm 5 mps 761 mmHg 68%
    11:00 +33°C° 0.2 mm 5 mps 761 mmHg 64%
    12:00 +34°C° 0.2 mm 5 mps 760 mmHg 61%
    13:00 +33°C° 0.4 mm 5 mps 759 mmHg 61%
    14:00 +33°C° 0.4 mm 5 mps 759 mmHg 62%
    15:00 +33°C° 0.4 mm 5 mps 758 mmHg 63%
    16:00 +32°C° 0 mm 5 mps 758 mmHg 67%
    17:00 +30°C° 0 mm 5 mps 758 mmHg 72%
    18:00 +29°C° 0 mm 5 mps 758 mmHg 76%
    19:00 +28°C° 0.1 mm 5 mps 759 mmHg 78%
    20:00 +28°C° 0.1 mm 5 mps 759 mmHg 80%
    21:00 +27°C° 0.1 mm 5 mps 760 mmHg 82%
    22:00 +27°C° 0 mm 5 mps 760 mmHg 83%
    23:00 +27°C° 0 mm 5 mps 760 mmHg 84%

    Tomorrow, 21 August, Tuesday

    Time Temperature Precipitation Wind Pressure Humidity
    00:00 +26°C° 0 mm 5 mps 760 mmHg 85%
    01:00 +26°C° 0 mm 5 mps 760 mmHg 86%
    02:00 +26°C° 0 mm 6 mps 760 mmHg 86%
    03:00 +26°C° 0 mm 6 mps 759 mmHg 87%
    04:00 +26°C° 0.5 mm 6 mps 759 mmHg 87%
    05:00 +26°C° 0.5 mm 6 mps 760 mmHg 87%
    06:00 +26°C° 0.5 mm 6 mps 760 mmHg 87%
    07:00 +27°C° 0.9 mm 6 mps 760 mmHg 83%
    08:00 +28°C° 0.9 mm 6 mps 761 mmHg 79%
    09:00 +29°C° 0.9 mm 6 mps 761 mmHg 75%
    10:00 +30°C° 1.2 mm 6 mps 761 mmHg 73%
    11:00 +30°C° 1.2 mm 5 mps 760 mmHg 72%
    12:00 +32°C° 1.2 mm 5 mps 760 mmHg 70%
    13:00 +30°C° 1.2 mm 5 mps 759 mmHg 72%
    14:00 +30°C° 1.2 mm 5 mps 759 mmHg 73%
    15:00 +30°C° 1.2 mm 5 mps 758 mmHg 75%
    16:00 +29°C° 0.9 mm 5 mps 758 mmHg 79%
    17:00 +28°C° 0.9 mm 6 mps 758 mmHg 82%
    18:00 +27°C° 0.9 mm 6 mps 758 mmHg 86%
    19:00 +27°C° 0.1 mm 6 mps 759 mmHg 87%
    20:00 +26°C° 0.1 mm 6 mps 760 mmHg 88%
    21:00 +26°C° 0.1 mm 6 mps 760 mmHg 88%
    22:00 +26°C° 0 mm 6 mps 760 mmHg 89%
    23:00 +26°C° 0 mm 6 mps 760 mmHg 89%

    Day after tomorrow, 22 August, Wednesday

    Time Temperature Precipitation Wind Pressure Humidity
    00:00 +26°C° 0 mm 6 mps 760 mmHg 89%
    01:00 +26°C° 0 mm 6 mps 760 mmHg 89%
    02:00 +26°C° 0 mm 6 mps 759 mmHg 89%
    03:00 +26°C° 0 mm 6 mps 759 mmHg 89%
    04:00 +26°C° 0 mm 5 mps 759 mmHg 89%
    05:00 +26°C° 0 mm 5 mps 759 mmHg 89%
    06:00 +26°C° 0 mm 5 mps 759 mmHg 88%
    07:00 +27°C° 0.1 mm 5 mps 760 mmHg 83%
    08:00 +28°C° 0.1 mm 5 mps 761 mmHg 79%
    09:00 +29°C° 0.1 mm 5 mps 762 mmHg 74%
    10:00 +30°C° 0.2 mm 5 mps 761 mmHg 70%
    11:00 +32°C° 0.2 mm 5 mps 761 mmHg 67%
    12:00 +33°C° 0.2 mm 5 mps 760 mmHg 64%
    13:00 +32°C° 0.5 mm 6 mps 759 mmHg 65%
    14:00 +32°C° 0.5 mm 6 mps 759 mmHg 67%
    15:00 +32°C° 0.5 mm 6 mps 758 mmHg 69%
    16:00 +30°C° 0.1 mm 6 mps 758 mmHg 72%
    17:00 +29°C° 0.1 mm 5 mps 759 mmHg 76%
    18:00 +28°C° 0.1 mm 5 mps 759 mmHg 79%
    19:00 +27°C° 0.1 mm 5 mps 759 mmHg 81%
    20:00 +27°C° 0.1 mm 5 mps 760 mmHg 83%
    21:00 +27°C° 0.1 mm 5 mps 761 mmHg 85%
    22:00 +26°C° 0.2 mm 5 mps 761 mmHg 86%
    23:00 +26°C° 0.2 mm 5 mps 761 mmHg 87%

    23 August, Thursday

    Time Temperature Precipitation Wind Pressure Humidity
    00:00 +26°C° 0.2 mm 5 mps 760 mmHg 87%
    01:00 +26°C° 0.2 mm 5 mps 760 mmHg 87%
    02:00 +26°C° 0.2 mm 5 mps 759 mmHg 87%
    03:00 +26°C° 0.2 mm 5 mps 759 mmHg 87%
    04:00 +26°C° 0.3 mm 5 mps 759 mmHg 88%
    05:00 +26°C° 0.3 mm 4 mps 759 mmHg 89%
    06:00 +26°C° 0.3 mm 4 mps 759 mmHg 89%
    07:00 +26°C° 0.4 mm 4 mps 760 mmHg 87%
    08:00 +27°C° 0.4 mm 4 mps 760 mmHg 84%
    09:00 +27°C° 0.4 mm 5 mps 761 mmHg 82%
    10:00 +28°C° 0.6 mm 5 mps 760 mmHg 80%
    11:00 +29°C° 0.6 mm 5 mps 760 mmHg 78%
    12:00 +29°C° 0.6 mm 6 mps 759 mmHg 75%
    13:00 +29°C° 0.3 mm 6 mps 759 mmHg 75%
    14:00 +29°C° 0.3 mm 6 mps 758 mmHg 75%
    15:00 +29°C° 0.3 mm 6 mps 758 mmHg 75%
    16:00 +28°C° 0.2 mm 6 mps 758 mmHg 78%
    17:00 +27°C° 0.2 mm 5 mps 758 mmHg 82%
    18:00 +27°C° 0.2 mm 5 mps 759 mmHg 85%
    19:00 +26°C° 0.1 mm 5 mps 759 mmHg 86%
    20:00 +26°C° 0.1 mm 5 mps 760 mmHg 87%
    21:00 +26°C° 0.1 mm 4 mps 760 mmHg 88%
    22:00 +26°C° 0.1 mm 5 mps 760 mmHg 88%
    23:00 +26°C° 0.1 mm 5 mps 760 mmHg 88%

    24 August, Friday

    Time Temperature Precipitation Wind Pressure Humidity
    00:00 +26°C° 0.1 mm 5 mps 760 mmHg 88%
    01:00 +26°C° 0.1 mm 5 mps 759 mmHg 88%
    02:00 +26°C° 0.1 mm 5 mps 758 mmHg 88%
    03:00 +26°C° 0.1 mm 5 mps 758 mmHg 88%
    04:00 +26°C° 0 mm 4 mps 758 mmHg 88%
    05:00 +25°C° 0 mm 4 mps 758 mmHg 89%
    06:00 +25°C° 0 mm 4 mps 759 mmHg 89%
    07:00 +27°C° 0.2 mm 4 mps 759 mmHg 83%
    08:00 +28°C° 0.2 mm 5 mps 760 mmHg 76%
    09:00 +29°C° 0.2 mm 5 mps 760 mmHg 70%
    10:00 +30°C° 0.5 mm 5 mps 760 mmHg 70%
    11:00 +30°C° 0.5 mm 5 mps 759 mmHg 70%
    12:00 +30°C° 0.5 mm 6 mps 759 mmHg 70%
    13:00 +30°C° 0.1 mm 6 mps 758 mmHg 69%
    14:00 +30°C° 0.1 mm 6 mps 758 mmHg 68%
    15:00 +30°C° 0.1 mm 6 mps 757 mmHg 67%
    16:00 +29°C° 0.3 mm 6 mps 757 mmHg 71%
    17:00 +28°C° 0.3 mm 5 mps 758 mmHg 74%
    18:00 +27°C° 0.3 mm 5 mps 758 mmHg 78%
    19:00 +27°C° 0.1 mm 5 mps 759 mmHg 80%
    20:00 +27°C° 0.1 mm 5 mps 759 mmHg 81%
    21:00 +27°C° 0.1 mm 4 mps 760 mmHg 83%
    22:00 +26°C° 0 mm 4 mps 760 mmHg 84%
    23:00 +26°C° 0 mm 4 mps 760 mmHg 85%

    25 August, Saturday

    Time Temperature Precipitation Wind Pressure Humidity
    00:00 +26°C° 0 mm 4 mps 759 mmHg 87%
    01:00 +26°C° 0.2 mm 4 mps 759 mmHg 87%
    02:00 +26°C° 0.2 mm 4 mps 759 mmHg 88%
    03:00 +26°C° 0.2 mm 4 mps 759 mmHg 88%
    04:00 +26°C° 0.3 mm 4 mps 759 mmHg 88%
    05:00 +26°C° 0.3 mm 4 mps 759 mmHg 88%
    06:00 +26°C° 0.3 mm 4 mps 760 mmHg 88%
    07:00 +27°C° 0.4 mm 4 mps 760 mmHg 84%
    08:00 +27°C° 0.4 mm 4 mps 761 mmHg 81%
    09:00 +28°C° 0.4 mm 4 mps 761 mmHg 77%
    10:00 +29°C° 0.6 mm 4 mps 761 mmHg 76%
    11:00 +29°C° 0.6 mm 5 mps 760 mmHg 75%
    12:00 +29°C° 0.6 mm 5 mps 760 mmHg 75%
    13:00 +29°C° 0.3 mm 5 mps 759 mmHg 73%
    14:00 +30°C° 0.3 mm 5 mps 759 mmHg 71%
    15:00 +30°C° 0.3 mm 5 mps 758 mmHg 69%
    16:00 +29°C° 0.1 mm 5 mps 758 mmHg 73%
    17:00 +28°C° 0.1 mm 5 mps 759 mmHg 77%
    18:00 +27°C° 0.1 mm 4 mps 759 mmHg 81%
    19:00 +27°C° 0 mm 4 mps 759 mmHg 83%
    20:00 +26°C° 0 mm 4 mps 760 mmHg 84%
    21:00 +26°C° 0 mm 3 mps 760 mmHg 86%
    22:00 +26°C° 0.1 mm 3 mps 760 mmHg 86%
    23:00 +26°C° 0.1 mm 3 mps 760 mmHg 86%
    Show more